Juneau, WI

4:31 PM CDT on August 28, 2016 (GMT -0500)
Dodge County

Weather History for KUNU - March, 2013

Change the Weather History Date:

Tuesday, March 19, 2013

  Actual Average Record
Temperature  
Mean Temperature 21 °F -  
Max Temperature 28 °F 39 °F 69 °F (1976)
Min Temperature 14 °F 25 °F 11 °F (1988)
Degree Days  
Heating Degree Days 44    
Moisture  
Dew Point 5 °F    
Average Humidity 55    
Maximum Humidity 73    
Minimum Humidity 34    
Precipitation  
Precipitation 0.00 in - - ()
Sea Level Pressure  
Sea Level Pressure 29.84 in    
Wind  
Wind Speed 18 mph (WSW)    
Max Wind Speed 25 mph    
Max Gust Speed 33 mph    
Visibility 10 miles    
Events Snow    
Averages and records for this station are not official NWS values.
T = Trace of Precipitation, MM = Missing Value Source: NWS Daily Summary

Daily Weather History Graph

Daily Weather History Graph

Search for Another Location

Airport or City:

Trip Planner

Search our weather history database for the weather conditions in past years. The results will help you decide how hot, cold, wet, or windy it might be!

Date:

Astronomy

Mar. 19, 2013 Rise Set
Actual Time 6:59 AM CDT 7:06 PM CDT
Civil Twilight 6:30 AM CDT 7:34 PM CDT
Nautical Twilight 5:57 AM CDT 8:08 PM CDT
Astronomical Twilight 5:23 AM CDT 8:42 PM CDT
Moon 11:39 AM CDT (3/19) 2:02 AM CDT (3/19)
Length of Visible Light 13h 03m
Length of Day
12h 06m
Waxing Crescent, 50% of the Moon is Illuminated
Mar 19
Waxing Crescent
Mar 19
First Quarter
Mar 27
Full
Apr 2
Last Quarter
Apr 10
New

Hourly Weather History & Observations

Time (CDT) Temp. Windchill Dew Point Humidity Pressure Visibility Wind Dir Wind Speed Gust Speed Precip Events Conditions
12:15 AM 17.6 °F 0.1 °F 8.6 °F 68% 29.68 in 10.0 mi WSW 23.0 mph 27.6 mph N/A   Overcast
12:35 AM 17.6 °F 0.9 °F 6.8 °F 63% 29.69 in 10.0 mi WSW 20.7 mph 26.5 mph N/A   Scattered Clouds
1:15 AM 15.8 °F -0.6 °F 6.8 °F 68% 29.68 in 10.0 mi WSW 18.4 mph 24.2 mph N/A   Mostly Cloudy
1:55 AM 14.0 °F -3.4 °F 6.8 °F 73% 29.68 in 10.0 mi WSW 19.6 mph 25.3 mph N/A   Overcast
2:15 AM 14.0 °F -3.4 °F 6.8 °F 73% 29.69 in 10.0 mi WSW 19.6 mph 25.3 mph N/A   Mostly Cloudy
2:35 AM 14.0 °F -2.5 °F 6.8 °F 73% 29.69 in 10.0 mi WSW 17.3 mph 23.0 mph N/A   Mostly Cloudy
2:55 AM 14.0 °F -2.5 °F 6.8 °F 73% 29.69 in 10.0 mi WSW 17.3 mph 25.3 mph N/A   Overcast
3:15 AM 14.0 °F -3.9 °F 6.8 °F 73% 29.69 in 10.0 mi WSW 20.7 mph 25.3 mph N/A   Overcast
3:35 AM 14.0 °F -3.9 °F 6.8 °F 73% 29.70 in 10.0 mi WSW 20.7 mph 24.2 mph N/A   Mostly Cloudy
3:55 AM 14.0 °F -4.3 °F 5.0 °F 67% 29.70 in 10.0 mi WSW 21.9 mph 28.8 mph N/A   Mostly Cloudy
4:15 AM 14.0 °F -3.4 °F 5.0 °F 67% 29.70 in 10.0 mi WSW 19.6 mph 25.3 mph N/A   Scattered Clouds
4:35 AM 14.0 °F -3.0 °F 5.0 °F 67% 29.70 in 10.0 mi WSW 18.4 mph - N/A   Scattered Clouds
4:55 AM 14.0 °F -3.0 °F 5.0 °F 67% 29.70 in 10.0 mi WSW 18.4 mph 26.5 mph N/A   Scattered Clouds
5:15 AM 14.0 °F -3.0 °F 5.0 °F 67% 29.71 in 10.0 mi WSW 18.4 mph 24.2 mph N/A   Overcast
5:35 AM 14.0 °F -4.3 °F 5.0 °F 67% 29.72 in 10.0 mi WSW 21.9 mph 28.8 mph N/A   Overcast
5:55 AM 14.0 °F -3.9 °F 6.8 °F 73% 29.73 in 10.0 mi WSW 20.7 mph 27.6 mph N/A   Overcast
6:15 AM 14.0 °F -3.9 °F 6.8 °F 73% 29.74 in 10.0 mi WSW 20.7 mph 31.1 mph N/A   Overcast
6:35 AM 14.0 °F -3.9 °F 6.8 °F 73% 29.74 in 7.0 mi WSW 20.7 mph 27.6 mph N/A   Overcast
6:55 AM 14.0 °F -1.4 °F 6.8 °F 73% 29.75 in 10.0 mi WSW 15.0 mph 26.5 mph N/A Snow Light Snow
7:15 AM 14.0 °F -3.0 °F 6.8 °F 73% 29.75 in 7.0 mi WSW 18.4 mph 25.3 mph N/A Snow Light Snow
7:35 AM 14.0 °F -3.4 °F 5.0 °F 67% 29.75 in 10.0 mi WSW 19.6 mph 26.5 mph N/A   Overcast
7:55 AM 14.0 °F -2.5 °F 5.0 °F 67% 29.76 in 7.0 mi WSW 17.3 mph 25.3 mph N/A Snow Light Snow
8:15 AM 14.0 °F -2.5 °F 6.8 °F 73% 29.77 in 7.0 mi West 17.3 mph 21.9 mph N/A Snow Light Snow
8:35 AM 14.0 °F -3.4 °F 5.0 °F 67% 29.77 in 10.0 mi WSW 19.6 mph 27.6 mph N/A   Overcast
8:55 AM 14.0 °F -2.5 °F 5.0 °F 67% 29.78 in 7.0 mi WSW 17.3 mph 28.8 mph N/A   Overcast
9:15 AM 14.0 °F -2.5 °F 5.0 °F 67% 29.79 in 10.0 mi West 17.3 mph 26.5 mph N/A   Overcast
9:35 AM 14.0 °F -3.9 °F 5.0 °F 67% 29.80 in 10.0 mi West 20.7 mph 27.6 mph N/A   Overcast
9:55 AM 14.0 °F -3.0 °F 5.0 °F 67% 29.81 in 10.0 mi West 18.4 mph 24.2 mph N/A   Overcast
10:15 AM 14.0 °F -1.4 °F 5.0 °F 67% 29.81 in 10.0 mi West 15.0 mph 26.5 mph N/A   Mostly Cloudy
10:35 AM 17.6 °F 2.7 °F 5.0 °F 58% 29.82 in 10.0 mi West 16.1 mph 26.5 mph N/A   Scattered Clouds
10:55 AM 17.6 °F 1.3 °F 5.0 °F 58% 29.82 in 7.0 mi West 19.6 mph 28.8 mph N/A   Scattered Clouds
11:15 AM 17.6 °F 1.7 °F 5.0 °F 58% 29.84 in 10.0 mi West 18.4 mph 25.3 mph N/A   Clear
11:35 AM 19.4 °F 5.5 °F 5.0 °F 54% 29.84 in 10.0 mi West 15.0 mph 25.3 mph N/A   Clear
11:55 AM 19.4 °F 2.8 °F 6.8 °F 58% 29.86 in 10.0 mi West 21.9 mph 28.8 mph N/A   Scattered Clouds
12:15 PM 21.2 °F 7.3 °F 6.8 °F 54% 29.87 in 10.0 mi WSW 16.1 mph 25.3 mph N/A   Scattered Clouds
12:35 PM 21.2 °F 5.2 °F 8.6 °F 58% 29.87 in 10.0 mi WSW 21.9 mph 28.8 mph N/A   Clear
12:55 PM 23.0 °F 9.2 °F 6.8 °F 50% 29.87 in 10.0 mi West 17.3 mph 27.6 mph N/A   Clear
1:15 PM 23.0 °F 8.0 °F 6.8 °F 50% 29.86 in 7.0 mi West 20.7 mph 31.1 mph N/A   Clear
1:35 PM 23.0 °F 8.3 °F 6.8 °F 50% 29.87 in 10.0 mi West 19.6 mph 25.3 mph N/A   Clear
1:55 PM 24.8 °F 9.0 °F 6.8 °F 46% 29.88 in 10.0 mi WSW 25.3 mph 33.4 mph N/A   Clear
2:15 PM 24.8 °F 11.9 °F 5.0 °F 43% 29.88 in 10.0 mi West 16.1 mph 31.1 mph N/A   Clear
2:35 PM 26.6 °F 14.3 °F 6.8 °F 43% 29.88 in 10.0 mi West 16.1 mph 27.6 mph N/A   Clear
2:55 PM 26.6 °F 13.8 °F 5.0 °F 40% 29.89 in 10.0 mi West 17.3 mph 29.9 mph N/A   Clear
3:15 PM 26.6 °F 15.2 °F 5.0 °F 40% 29.89 in 10.0 mi West 13.8 mph 24.2 mph N/A   Clear
3:35 PM 28.4 °F 17.5 °F 5.0 °F 37% 29.89 in 10.0 mi West 13.8 mph 21.9 mph N/A   Clear
3:55 PM 28.4 °F 17.5 °F 5.0 °F 37% 29.90 in 10.0 mi West 13.8 mph 21.9 mph N/A   Clear
4:15 PM 28.4 °F 17.0 °F 5.0 °F 37% 29.91 in 10.0 mi West 15.0 mph 25.3 mph N/A   Clear
4:35 PM 28.4 °F 15.4 °F 6.8 °F 40% 29.92 in 10.0 mi WSW 19.6 mph - N/A   Clear
4:55 PM 28.4 °F 17.0 °F 5.0 °F 37% 29.92 in 10.0 mi WSW 15.0 mph 21.9 mph N/A   Clear
5:15 PM 28.4 °F 17.5 °F 3.2 °F 34% 29.93 in 10.0 mi West 13.8 mph 20.7 mph N/A   Clear
5:35 PM 28.4 °F 18.0 °F 5.0 °F 37% 29.94 in 10.0 mi WSW 12.7 mph - N/A   Clear
5:55 PM 28.4 °F 17.0 °F 5.0 °F 37% 29.95 in 10.0 mi WSW 15.0 mph - N/A   Clear
6:15 PM 28.4 °F 17.5 °F 3.2 °F 34% 29.95 in 10.0 mi WSW 13.8 mph - N/A   Clear
6:35 PM 28.4 °F 17.5 °F 3.2 °F 34% 29.95 in 10.0 mi WSW 13.8 mph 20.7 mph N/A   Clear
6:55 PM 26.6 °F 14.3 °F 3.2 °F 37% 29.96 in 10.0 mi WSW 16.1 mph 20.7 mph N/A   Clear
7:15 PM 26.6 °F 15.7 °F 1.4 °F 34% 29.97 in 10.0 mi WSW 12.7 mph 24.2 mph N/A   Clear
7:35 PM 26.6 °F 16.2 °F 1.4 °F 34% 29.97 in 10.0 mi WSW 11.5 mph 20.7 mph N/A   Clear
7:55 PM 24.8 °F 14.0 °F 3.2 °F 40% 29.98 in 10.0 mi WSW 11.5 mph - N/A   Clear
8:35 PM 24.8 °F 13.4 °F 3.2 °F 40% 29.99 in 10.0 mi WSW 12.7 mph 18.4 mph N/A   Clear
8:55 PM 23.0 °F 11.7 °F 3.2 °F 43% 29.99 in 10.0 mi West 11.5 mph 16.1 mph N/A   Clear
9:15 PM 23.0 °F 13.1 °F 3.2 °F 43% 29.99 in 10.0 mi WSW 9.2 mph - N/A   Scattered Clouds
9:35 PM 21.2 °F 11.7 °F 3.2 °F 46% 30.00 in 10.0 mi West 8.1 mph - N/A   Scattered Clouds
9:55 PM 21.2 °F 13.6 °F 3.2 °F 46% 30.00 in 10.0 mi West 5.8 mph - N/A   Clear
10:15 PM 21.2 °F 12.6 °F 3.2 °F 46% 30.00 in 10.0 mi West 6.9 mph - N/A   Clear
10:35 PM 21.2 °F 10.1 °F 3.2 °F 46% 30.01 in 10.0 mi West 10.4 mph 16.1 mph N/A   Clear
10:55 PM 21.2 °F 8.9 °F 3.2 °F 46% 30.01 in 10.0 mi West 12.7 mph 20.7 mph N/A   Clear
11:15 PM 21.2 °F 9.5 °F 3.2 °F 46% 30.01 in 10.0 mi West 11.5 mph 20.7 mph N/A   Mostly Cloudy
11:35 PM 19.4 °F 6.0 °F 3.2 °F 49% 30.01 in 10.0 mi WSW 13.8 mph 19.6 mph N/A   Scattered Clouds
11:55 PM 19.4 °F 7.2 °F 3.2 °F 49% 30.01 in 10.0 mi West 11.5 mph - N/A   Clear